SCP
0 0 0 0 0 0 0 0 0 0 0 0 0 0 0 0 0 0 0 0 0 0 0 0 0 0 0 0 0 0 0 0 0 0 0 0 0 0 0 0 0 0 0 0
0 0 0 0 0 0 0 0 0 0 0 0 0 0 0 0 0 0 0 0 0 0 0 0 0 0 0 0 0 0 0 0 0 0 0 0 0 0 0 0 0 0 0 0
0 0 0 0 0 0 0 0 0 0 0 0 0 0 0 0 0 0 0 0 0 0 0 0 0 0 0 0 0 0 0 0 0 0 0 0 0 0 0 0 0 0 0 0
0 0 0 0 0 0 0 0 0 0 0 0 0 0 0 0 0 0 0 0 0 0 0 0 0 0 0 0 0 0 0 0 0 0 0 0 0 0 0 0 0 0 0 0
0 0 0 0 0 0 0 0 0 0 0 0 0 0 0 0 0 0 0 0 0 0 0 0 0 0 0 0 0 0 0 0 0 0 0 0 0 0 0 0 0 0 0 0
0 0 0 0 0 0 0 0 0 0 0 0 0 0 0 0 0 0 0 0 0 0 0 0 0 0 0 0 0 0 0 0 0 0 0 0 0 0 0 0 0 0 0 0
0 0 0 0 0 0 0 0 0 0 0 0 0 0 0 0 0 0 0 0 0 0 0 0 0 0 0 0 0 0 0 0 0 0 0 0 0 0 0 0 0 0 0 0
0 0 0 0 0 0 0 0 0 0 0 0 0 0 0 0 0 0 0 0 0 0 0 0 0 0 0 0 0 0 0 0 0 0 0 0 0 0 0 0 0 0 0 0
0 0 0 0 0 0 0 0 0 0 0 0 0 0 0 0 0 0 0 0 0 0 0 0 0 0 0 0 0 0 0 0 0 0 0 0 0 0 0 0 0 0 0 0
0 0 0 0 0 0 0 0 0 0 0 0 0 0 0 0 0 0 0 0 0 0 0 0 0 0 0 0 0 0 0 0 0 0 0 0 0 0 0 0 0 0 0 0
0 0 0 0 0 0 0 0 0 0 0 0 0 0 0 0 0 0 0 0 0 0 0 0 0 0 0 0 0 0 0 0 0 0 0 0 0 0 0 0 0 0 0 0
0 0 0 0 0 0 0 0 0 0 0 0 0 0 0 0 0 0 0 0 0 0 0 0 0 0 0 0 0 0 0 0 0 0 0 0 0 0 0 0 0 0 0 0
0 0 0 0 0 0 0 0 0 0 0 0 -0 0 0 0 0 0 0 0 0 0 0 0 0 0 0 0 0 0 0 0 0 0 0 0 0 0 0 0 0 0 0 0
0 0 0 0 0 0 0 0 0 0 0 0 0 0 0 0 0 0 0 0 0 0 0 0 0 0 0 0 0 0 0 0 0 0 0 0 0 0 0 0 0 0 0 0
0 0 0 0 0 0 0 0 0 0 0 0 0 0 0 0 0 0 0 0 0 0 0 0 0 0 0 0 0 0 0 0 0 0 0 0 0 0 0 0 0 0 0 0
0 0 0 0 0 0 -0 0 0 0 0 0 0 0 0 0 0 0 0 0 0 0 0 0 0 0 0 0 0 0 0 0 0 0 0 0 0 0 0 0 0 0 0 0
0 0 0 0 0 0 0 0 0 0 0 0 0 0 0 0 0 0 0 0 0 0 0 0 0 0 0 0 0 0 0 0 0 0 0 0 0 0 0 0 0 0 0 0
0 0 0 0 0 0 0 0 0 0 0 0 0 0 0 0 0 0 0 0 0 0 0 0 0 0 0 0 0 0 0 0 0 0 0 0 0 0 0 0 0 0 0 0
0 0 0 0 0 0 0 0 0 0 0 0 0 0 0 0 0 0 -0 0 0 0 0 0 0 0 0 0 0 0 0 0 0 0 0 0 0 0 0 0 0 0 0 0
0 0 0 0 0 0 0 0 0 0 0 0 0 0 0 0 0 0 -0 -0 0 0 0 0 0 0 0 0 0 0 0 0 0 0 0 0 0 0 0 0 0 0 0 0
0 0 0 0 0 0 0 0 0 0 0 0 0 0 0 0 0 0 -0 -0 0 0 0 0 0 0 0 0 0 0 0 0 0 0 0 0 0 0 0 0 0 0 0 0
0 0 0 0 0 0 0 0 0 0 0 0 0 0 0 0 0 0 0 0 0 0 0 0 0 0 0 0 0 0 0 0 0 0 0 0 0 0 0 0 0 0 0 0
0 0 0 0 0 0 0 0 0 0 0 0 0 0 0 0 0 0 0 0 0 0 0 0 0 0 0 0 0 0 0 0 0 0 0 0 0 0 0 0 0 0 0 0
0 0 0 0 0 0 0 0 0 0 0 0 0 0 0 0 0 0 0 0 0 0 0 0 0 0 0 0 0 0 0 0 0 0 0 0 0 0 0 0 0 0 0 0
0 0 0 0 0 0 0 0 0 0 0 0 0 0 0 0 0 0 0 0 0 0 0 0 0 0 0 0 0 0 0 0 0 0 0 0 0 0 0 0 0 0 0 0
0 0 0 0 0 0 0 0 0 0 0 0 0 0 0 0 0 0 0 0 0 0 0 0 0 0 0 0 0 0 0 0 0 0 0 0 0 0 0 0 0 0 0 0
Wind_Speed
4 3 2 1 1 1 4 4 3 1 1 1 2 5 6 4 4 5 5 5 5 6 5 3 3 3 2 3 3 4 4 4 4 3 3 3 2 2 2 1 1 1 1 1
4 4 2 2 3 5 5 5 3 1 1 1 2 6 7 6 6 6 6 6 6 6 4 3 3 3 3 3 3 4 3 3 4 4 3 2 2 2 1 1 1 1 1 1
5 3 1 4 5 5 3 2 3 2 1 0 4 5 3 2 3 4 5 6 5 6 6 4 3 3 3 4 5 4 4 3 4 4 3 2 2 2 2 2 2 2 2 2
5 2 2 4 3 1 2 1 3 2 1 0 2 3 2 2 3 3 5 5 6 5 5 5 4 3 4 5 4 4 4 3 3 4 4 5 3 3 3 2 2 2 2 2
3 2 2 2 2 1 2 2 3 2 1 1 0 3 4 1 4 3 3 4 4 4 4 4 4 4 4 3 3 4 4 3 3 4 5 5 4 3 2 2 2 2 2 2
3 1 2 2 2 1 3 3 3 1 1 1 1 3 4 3 3 2 2 2 2 2 3 4 3 3 3 2 2 3 3 4 3 4 4 5 5 4 3 3 3 2 2 2
2 2 2 1 2 2 2 2 1 1 1 2 1 4 7 3 3 3 3 2 2 2 2 3 3 3 2 2 2 2 3 4 4 4 5 5 5 5 5 4 4 3 2 2
3 1 1 1 0 1 1 2 1 1 2 1 2 6 5 1 2 3 4 3 3 2 2 2 3 2 3 2 2 2 3 4 4 4 5 5 5 4 4 5 4 4 3 3
3 2 2 1 2 1 3 2 1 2 2 2 4 5 6 3 4 3 3 3 2 2 2 2 2 2 2 3 3 3 4 4 4 4 4 4 4 4 5 4 4 4 4 3
3 3 0 1 1 2 2 3 3 3 2 2 4 5 4 4 4 3 3 3 2 2 2 2 2 2 2 3 3 2 3 3 3 3 3 3 4 4 4 4 4 4 4 4
2 4 1 1 2 2 2 3 2 2 1 2 3 4 3 5 4 5 4 3 2 2 2 2 2 2 2 2 2 2 3 3 3 2 3 3 3 4 4 4 4 4 4 4
2 3 2 2 0 2 2 3 4 3 3 3 3 5 0 4 4 4 4 4 3 3 3 3 3 2 2 2 2 2 2 3 3 3 2 3 3 3 3 4 4 4 4 4
4 4 3 1 2 2 3 3 3 1 2 4 5 6 1 2 3 5 5 4 4 4 4 3 3 3 3 3 3 3 3 3 3 2 2 3 3 3 3 4 3 4 4 4
3 3 4 5 2 5 5 6 7 6 5 6 9 10 7 7 7 6 5 5 5 5 5 4 4 4 4 3 3 3 3 3 3 3 3 3 3 4 4 3 3 3 4 4
2 3 3 3 1 2 4 7 10 11 10 9 9 11 15 11 9 8 6 6 6 7 6 6 5 4 4 4 4 3 3 3 3 3 3 4 3 3 3 3 3 3 3 3
2 3 2 2 2 3 6 9 12 13 12 13 12 16 15 11 9 9 9 7 8 8 8 7 6 5 5 5 4 4 4 3 3 3 4 3 3 3 3 3 3 3 3 3
5 5 4 3 1 2 10 13 15 11 12 12 15 15 9 8 9 8 7 7 9 9 8 7 6 6 5 5 4 4 4 3 3 3 3 3 3 3 3 3 3 3 4 3
7 5 3 1 2 10 6 4 11 12 13 15 14 13 11 10 7 7 8 9 9 9 8 7 6 5 4 4 3 3 2 3 3 4 4 4 3 4 3 3 4 4 3 4
5 7 4 4 5 11 7 5 9 10 11 14 17 17 13 5 5 9 8 9 9 8 6 5 5 4 3 3 3 2 3 3 4 4 4 4 4 4 4 4 4 4 4 4
2 3 4 5 6 10 6 5 6 5 8 8 14 15 10 6 5 5 2 5 6 5 4 3 3 3 3 3 2 3 3 4 5 5 5 4 4 5 5 5 4 4 4 4
6 5 7 9 9 11 4 6 9 7 7 4 10 11 10 10 8 1 1 2 3 3 3 3 3 3 3 2 3 4 4 6 6 4 4 4 4 5 5 4 4 4 3 4
13 11 10 8 10 13 8 12 13 8 1 3 6 8 9 9 6 4 3 3 3 3 3 3 3 4 3 3 4 5 6 5 3 3 3 4 4 4 3 4 4 4 4 4
13 12 10 14 12 3 13 12 9 3 4 5 5 6 8 7 7 7 5 5 4 4 4 3 4 4 4 3 4 6 5 3 2 3 4 4 3 4 4 4 4 4 4 4
9 5 6 9 12 8 10 10 8 7 7 6 5 5 6 7 7 6 5 5 5 4 4 3 4 5 5 3 4 5 4 2 2 4 4 3 4 4 3 4 4 4 4 4
9 10 8 11 8 5 9 13 13 11 7 6 6 6 7 8 7 7 6 6 5 4 4 3 4 5 6 4 4 3 3 2 3 4 4 4 4 4 4 4 4 5 6 6
10 12 13 13 9 9 9 9 10 10 10 10 8 7 7 8 9 7 7 6 5 4 3 4 5 5 5 4 4 3 2 3 4 4 4 4 3 3 4 4 4 7 8 8
Wind_Direction
38 77 81 96 215 93 135 139 136 101 33 357 250 276 282 269 246 251 247 245 250 256 262 256 251 247 245 238 220 219 212 198 187 188 192 194 196 192 188 197 208 222 230 225
107 64 43 78 119 120 130 129 128 105 65 326 308 287 277 268 251 250 248 247 251 257 257 250 241 229 230 231 223 219 214 205 199 202 200 201 194 196 202 191 211 231 248 256
99 67 78 114 113 120 116 152 154 147 12 248 300 283 252 260 255 255 253 253 254 254 256 251 246 240 235 237 229 218 212 208 209 204 190 178 184 195 200 212 220 225 231 241
74 41 111 108 87 105 131 130 150 165 220 17 327 289 264 257 276 260 248 241 245 248 251 253 255 255 247 245 237 228 215 207 207 200 196 194 202 216 222 222 223 222 227 239
86 43 65 77 23 32 105 115 129 140 140 280 257 263 271 243 267 262 247 241 247 253 255 254 254 256 256 252 238 225 213 209 205 201 200 203 216 225 229 220 231 237 237 240
80 51 19 25 35 88 134 132 114 136 212 259 259 249 270 218 233 243 237 242 244 253 261 260 260 263 267 263 246 228 215 219 213 209 210 209 218 221 220 224 232 238 246 244
84 76 47 30 113 122 177 185 172 186 241 250 128 245 260 255 238 239 252 263 272 279 275 269 261 256 262 261 252 246 228 229 220 216 221 223 227 228 229 230 231 235 240 244
152 149 66 16 331 182 187 255 227 225 240 280 187 242 257 252 261 253 256 267 280 283 284 280 270 264 263 259 252 245 238 237 228 222 226 227 229 232 238 237 235 235 241 244
171 157 59 26 359 232 157 164 11 104 87 274 256 268 279 233 238 229 232 238 252 263 271 283 280 269 267 264 254 247 246 242 236 232 230 229 227 230 235 237 237 242 247 250
147 140 44 347 161 55 358 139 161 179 203 254 274 255 247 224 213 202 211 222 249 267 269 277 274 269 267 268 266 255 246 247 247 240 235 239 236 236 239 237 237 243 248 249
160 135 122 170 204 190 147 152 162 141 253 228 256 255 213 220 211 206 217 227 238 259 272 273 278 273 269 271 266 258 253 253 253 248 243 242 244 241 237 237 240 242 248 249
155 130 148 206 63 320 240 209 190 205 202 223 249 268 128 226 239 233 237 240 248 258 274 281 279 274 269 269 268 264 260 257 257 252 241 242 249 244 242 245 248 243 244 247
152 142 126 168 190 204 227 217 210 175 146 190 218 252 103 220 243 240 244 251 254 261 274 276 271 265 262 263 262 261 258 258 257 246 238 241 244 243 246 251 256 255 250 247
142 162 202 218 204 169 198 204 196 187 200 211 230 248 255 251 251 251 248 252 259 262 265 268 268 265 262 259 258 260 263 260 253 239 232 239 246 244 244 248 250 253 253 251
170 197 221 269 295 203 221 212 199 208 217 224 238 241 255 257 255 259 258 258 263 268 268 264 262 264 265 264 262 258 261 259 246 238 237 244 250 252 250 247 247 248 249 253
176 176 163 257 236 249 261 240 219 224 232 240 256 265 262 265 261 258 255 252 257 263 264 263 261 257 256 255 258 257 258 257 241 235 242 247 243 242 245 245 241 241 247 252
169 155 173 235 322 293 260 226 208 212 216 214 232 245 250 245 242 246 251 250 252 258 261 261 255 248 245 248 248 252 257 257 244 244 250 248 242 243 247 247 242 244 247 251
162 155 171 181 148 239 248 182 201 214 229 222 238 250 248 252 264 266 255 248 252 255 255 254 250 250 250 251 249 250 249 245 246 252 256 254 247 248 250 246 247 250 249 248
182 163 159 177 233 266 272 206 186 203 247 227 231 245 252 255 276 268 247 230 236 242 243 248 248 250 255 254 247 232 238 242 246 251 253 251 246 247 246 246 250 249 247 249
143 174 175 183 220 244 247 166 166 167 259 223 214 228 230 177 228 255 209 208 225 232 237 242 246 245 248 254 227 222 239 244 249 252 253 251 243 244 246 249 251 248 243 249
174 185 204 209 232 257 238 147 154 192 243 192 196 210 197 198 226 252 158 201 209 224 233 231 231 238 247 238 208 231 244 251 257 260 256 250 243 243 247 252 250 248 244 248
180 183 197 195 220 245 163 157 193 217 184 173 187 196 199 215 231 240 245 239 230 241 243 233 240 253 250 222 217 239 249 259 263 253 250 249 245 242 240 244 247 243 239 245
205 199 192 201 220 233 171 196 214 206 208 210 203 204 200 215 231 236 244 248 251 250 251 244 248 261 260 229 222 244 258 262 250 245 247 248 246 240 235 234 238 238 234 243
220 211 209 234 246 231 213 226 235 228 230 232 215 203 202 219 230 234 243 248 248 250 249 243 244 257 264 245 230 245 262 249 226 240 249 248 244 246 240 236 234 236 234 239
199 180 209 242 254 262 237 226 232 233 232 238 234 219 216 219 229 233 239 244 246 247 244 231 238 252 262 264 253 248 245 225 232 244 248 248 246 247 246 243 240 240 243 242
193 190 199 227 214 214 230 214 215 218 227 228 227 231 226 219 231 234 239 243 244 246 246 245 246 252 262 265 264 259 233 216 225 242 245 245 246 245 247 253 262 252 254 261